Location: ??????????
(42.1626°N, 44.1160°E)
Time: 14:52:33
(UTC+00:00)

HJ-1C - Pass Details

Date: 03 March 2021
Orbit: 428 x 440 km, 97.1° (Epoch: 14 April)

Event Time Altitude Azimuth Distance (km) Brightness Sun altitude
Rises 15:24:35 0° 143° (SE) 2,416 6.8 -6.1°
Reaches altitude 10° 15:26:47 10° 131° (SE) 1,549 5.7 -6.5°
Maximum altitude 15:29:38 27° 72° (ENE) 882 4.3 -7.0°
Drops below altitude 10° 15:32:29 10° 12° (NNE) 1,555 6.0 -7.6°
Sets 15:34:42 0° 0° (N) 2,426 7.1 -8.0°
